Location: Peebles
(55.6412°N, 3.1714°W)
Time: 23:29:27
(UTC+01:00)

CENTAUR R/B - Pass Details

Date: 25 January 2022
Orbit: 716 x 1471 km, 63.4° (Epoch: 08 May)

Event Time Altitude Azimuth Distance (km) Brightness Sun altitude
Rises 19:41:23 0° 280° (W) 3,727 6.9 -26.2°
Reaches altitude 10° 19:43:55 10° 287° (WNW) 2,883 5.9 -26.5°
Maximum altitude 19:50:38 47° 1° (N) 1,547 3.5 -27.5°
Enters shadow 19:52:46 39° 40° (NE) 1,789 3.5 -27.8°
